Location: Marcé
(47.5801°N, 0.3280°W)
Time: 22:54:08
(UTC+01:00)

Transit 2A - Pass Details

Date: 07 December 2021
Orbit: 591 x 967 km, 66.7° (Epoch: 23 January)

Event Time Altitude Azimuth Distance (km) Brightness Sun altitude
Rises 03:04:48 0° 274° (W) 3,468 - -53.7°
Reaches altitude 10° 03:08:03 10° 293° (WNW) 2,592 - -53.2°
Maximum altitude 03:12:14 19° 336° (NNW) 2,093 - -52.6°
Drops below altitude 10° 03:16:33 10° 19° (NNE) 2,699 - -52.0°
Exits shadow 03:18:10 - 29° (NNE) 3,117 9.5 -51.7°
Sets 03:20:03 0° 37° (NE) 3,663 10.0 -51.5°
